FW8541 Weather Reports


Display with metric or nautical units.
time (UTC)temp
F
wind
direction
speed
MPH
gust
MPH
rain 1hr
in
rain 24hr
in
rain mn
in
humidity
%
barometer
mb
20260509200037 71 103 1.0 6.0 0.00 0.00 0.00 60 1009.0
20260509194538 70 299 1.0 9.0 0.00 0.00 0.00 57 1009.1
20260509193031 69 82 1.0 4.0 0.00 0.00 0.00 59 1009.1
20260509191530 70 248 2.0 8.0 0.00 0.00 0.00 57 1009.1
20260509190032 70 180 3.0 9.0 0.00 0.00 0.00 58 1009.5
20260509184539 69 172 1.0 7.0 0.00 0.00 0.00 57 1009.7
20260509183035 68 103 2.0 7.0 0.00 0.00 0.00 58 1009.8
20260509181543 67 110 1.0 7.0 0.00 0.00 0.00 58 1010.0
20260509180032 66 166 4.0 8.0 0.00 0.00 0.00 58 1010.1
20260509174535 66 135 2.0 8.0 0.00 0.00 0.00 59 1010.6
20260509173030 65 107 1.0 4.0 0.00 0.00 0.00 58 1010.7
20260509171536 65 259 1.0 8.0 0.00 0.00 0.00 60 1011.1
20260509170032 66 173 1.0 4.0 0.00 0.00 0.00 59 1011.3
20260509164531 66 167 1.0 6.0 0.00 0.00 0.00 61 1011.3
20260509163041 66 160 3.0 8.0 0.00 0.00 0.00 60 1011.0
20260509161529 65 227 3.0 13.0 0.00 0.00 0.00 59 1010.8
20260509160032 65 152 4.0 10.0 0.00 0.00 0.00 62 1010.8
20260509154542 64 117 2.0 7.0 0.00 0.00 0.00 59 1011.0
20260509153033 65 105 2.0 5.0 0.00 0.00 0.00 58 1011.2
20260509151534 63 0 2.0 7.0 0.00 0.00 0.00 60 1011.2
20260509150033 63 165 2.0 6.0 0.00 0.00 0.00 60 1011.2
20260509144532 62 138 1.0 4.0 0.00 0.00 0.00 65 1011.4
20260509143045 60 277 1.0 5.0 0.00 0.00 0.00 65 1011.7
20260509141541 59 260 1.0 6.0 0.00 0.00 0.00 65 1011.8
20260509140040 58 236 2.0 4.0 0.00 0.00 0.00 67 1011.9
20260509134533 58 307 1.0 4.0 0.00 0.00 0.00 68 1011.5
20260509133034 57 0 0.0 3.0 0.00 0.00 0.00 69 1011.4
20260509131537 57 159 0.0 3.0 0.00 0.00 0.00 70 1011.6
20260509130039 57 0 0.0 3.0 0.00 0.00 0.00 67 1011.6
20260509124535 56 121 0.0 5.0 0.00 0.00 0.00 70 1011.8
20260509123045 55 229 2.0 4.0 0.00 0.00 0.00 71 1011.9
20260509121534 55 101 0.0 3.0 0.00 0.00 0.00 74 1011.7
20260509120030 54 0 0.0 2.0 0.00 0.00 0.00 75 1011.5
20260509114535 55 293 0.0 2.0 0.00 0.00 0.00 73 1011.5
20260509113038 55 0 0.0 1.0 0.00 0.00 0.00 73 1011.2
20260509111542 55 0 0.0 2.0 0.00 0.00 0.00 70 1011.2
20260509110033 54 258 0.0 2.0 0.00 0.00 0.00 68 1011.1
20260509104534 54 0 0.0 3.0 0.00 0.00 0.00 68 1011.0
20260509103049 54 0 0.0 2.0 0.00 0.00 0.00 69 1011.0
20260509101534 54 0 0.0 3.0 0.00 0.00 0.00 69 1010.9
20260509100045 54 257 0.0 2.0 0.00 0.00 0.00 69 1011.1
20260509094534 54 0 0.0 2.0 0.00 0.00 0.00 69 1010.9
20260509093035 53 0 0.0 2.0 0.00 0.00 0.00 69 1011.0
20260509091538 53 0 0.0 2.0 0.00 0.00 0.00 69 1011.0
20260509090036 53 0 0.0 2.0 0.00 0.00 0.00 69 1011.0
20260509084532 53 0 0.0 2.0 0.00 0.00 0.00 70 1011.2
20260509083041 53 0 0.0 1.0 0.00 0.00 0.00 72 1011.2
20260509081535 53 0 0.0 1.0 0.00 0.00 0.00 72 1011.3
20260509080034 53 231 0.0 1.0 0.00 0.00 0.00 72 1011.3
20260509074531 53 0 0.0 2.0 0.00 0.00 0.00 72 1011.3
20260509073038 53 0 0.0 2.0 0.00 0.00 0.00 71 1011.3
20260509071532 53 240 0.0 1.0 0.00 0.00 0.00 69 1011.3
20260509070034 53 245 0.0 3.0 0.00 0.00 0.00 69 1011.3
20260509064533 53 0 0.0 0.0 0.00 0.00 0.00 70 1011.4
20260509063036 52 0 0.0 0.0 0.00 0.00 0.00 72 1011.7
20260509061542 51 0 0.0 0.0 0.00 0.00 0.00 73 1011.8
20260509060036 51 0 0.0 0.0 0.00 0.00 0.00 74 1011.8
20260509054541 50 0 0.0 0.0 0.00 0.00 0.00 76 1011.9
20260509053051 49 0 0.0 0.0 0.00 0.00 0.00 77 1011.8
20260509051534 49 0 0.0 0.0 0.00 0.00 0.00 80 1011.9
20260509050033 49 0 0.0 0.0 0.00 0.00 0.00 82 1011.9
20260509044538 49 0 0.0 3.0 0.00 0.00 0.00 81 1011.8
20260509043034 50 94 1.0 2.0 0.00 0.00 0.00 78 1011.8
20260509041534 49 0 0.0 1.0 0.00 0.00 0.00 75 1011.9
20260509040037 48 0 0.0 1.0 0.00 0.00 0.00 80 1012.0
20260509034535 47 0 0.0 0.0 0.00 0.00 0.00 82 1012.0
20260509033033 47 0 0.0 0.0 0.00 0.00 0.00 82 1012.0
20260509031533 48 0 0.0 0.0 0.00 0.00 0.00 82 1012.0
20260509030035 48 0 0.0 0.0 0.00 0.00 0.00 81 1012.3
20260509024536 49 0 0.0 0.0 0.00 0.00 0.00 80 1012.3
20260509023035 50 0 0.0 0.0 0.00 0.00 0.00 78 1012.3
20260509021534 51 0 0.0 0.0 0.00 0.00 0.00 77 1012.3
20260509020037 52 0 0.0 0.0 0.00 0.00 0.00 75 1012.2
20260509014535 54 0 0.0 0.0 0.00 0.00 0.00 72 1012.2
20260509013034 55 0 0.0 0.0 0.00 0.00 0.00 68 1012.1
20260509011532 57 0 0.0 0.0 0.00 0.00 0.00 65 1012.1
20260509010031 58 0 0.0 1.0 0.00 0.00 0.00 61 1012.0
20260509004537 58 159 1.0 6.0 0.00 0.00 0.00 56 1012.0
20260509003037 59 262 1.0 4.0 0.00 0.00 0.00 59 1012.0
20260509001532 61 0 0.0 0.0 0.00 0.00 0.00 60 1011.9
20260509000034 62 0 0.0 0.0 0.00 0.00 0.00 56 1011.8
20260508234533 63 0 0.0 0.0 0.00 0.00 0.00 56 1011.7
20260508233035 64 0 0.0 0.0 0.00 0.00 0.00 59 1011.7
20260508231540 65 0 0.0 0.0 0.00 0.00 0.00 54 1011.6
20260508230039 65 0 0.0 0.0 0.00 0.00 0.00 54 1011.5
20260508224534 66 0 0.0 0.0 0.00 0.00 0.00 47 1011.5
20260508223040 67 0 0.0 1.0 0.00 0.00 0.00 47 1011.5
20260508221538 67 0 0.0 1.0 0.00 0.00 0.00 46 1011.3
20260508220039 68 0 0.0 4.0 0.00 0.00 0.00 46 1011.3
20260508214545 67 327 4.0 9.0 0.00 0.00 0.00 39 1011.5
20260508213031 68 0 0.0 3.0 0.00 0.00 0.00 42 1011.5
20260508211540 69 238 1.0 5.0 0.00 0.00 0.00 36 1011.4
20260508210035 68 344 3.0 6.0 0.00 0.00 0.00 36 1011.5
20260508204534 68 342 3.0 9.0 0.00 0.00 0.00 38 1011.5
20260508203031 66 300 1.0 4.0 0.00 0.00 0.00 38 1011.6
20260508201536 66 242 1.0 6.0 0.00 0.00 0.00 41 1011.8